TimeCST,TemperatureF,Dew PointF,Humidity,Sea Level PressureIn,VisibilityMPH,Wind Direction,Wind SpeedMPH,Gust SpeedMPH,PrecipitationIn,Events,Conditions,WindDirDegrees,DateUTC
12:53 AM,46.0,33.1,61,30.27,10.0,SW,10.4,-,N/A,,Clear,220,2012-12-05 06:53:00
1:53 AM,45.0,32.0,60,30.25,10.0,SW,11.5,-,N/A,,Clear,220,2012-12-05 07:53:00
2:53 AM,46.0,33.1,61,30.24,10.0,SSW,9.2,-,N/A,,Clear,210,2012-12-05 08:53:00
3:53 AM,44.1,33.1,65,30.22,10.0,SSW,3.5,-,N/A,,Clear,200,2012-12-05 09:53:00
4:53 AM,42.1,32.0,67,30.22,10.0,SW,8.1,-,N/A,,Clear,220,2012-12-05 10:53:00
5:53 AM,42.1,32.0,67,30.22,10.0,SSW,6.9,-,N/A,,Clear,210,2012-12-05 11:53:00
6:53 AM,41.0,30.9,67,30.24,10.0,SSE,6.9,-,N/A,,Clear,150,2012-12-05 12:53:00
8:53 AM,48.0,30.9,52,30.24,10.0,SSE,9.2,-,N/A,,Clear,160,2012-12-05 14:53:00
9:53 AM,55.9,28.9,36,30.22,10.0,SSE,13.8,-,N/A,,Clear,160,2012-12-05 15:53:00
10:53 AM,61.0,30.0,31,30.20,10.0,SSE,4.6,-,N/A,,Clear,160,2012-12-05 16:53:00
11:53 AM,64.9,30.9,28,30.16,10.0,Calm,Calm,-,N/A,,Clear,0,2012-12-05 17:53:00
12:53 PM,69.1,32.0,25,30.10,10.0,Calm,Calm,-,N/A,,Clear,0,2012-12-05 18:53:00
1:53 PM,71.1,30.9,23,30.05,10.0,ENE,3.5,-,N/A,,Clear,60,2012-12-05 19:53:00
2:53 PM,73.0,30.9,21,30.00,10.0,Variable,5.8,-,N/A,,Clear,0,2012-12-05 20:53:00
3:53 PM,73.9,30.9,21,29.98,10.0,Calm,Calm,-,N/A,,Clear,0,2012-12-05 21:53:00
4:53 PM,72.0,30.9,22,29.97,10.0,East,3.5,-,N/A,,Clear,80,2012-12-05 22:53:00
5:53 PM,69.1,30.9,24,29.97,10.0,Calm,Calm,-,N/A,,Clear,0,2012-12-05 23:53:00
6:53 PM,64.0,32.0,30,29.97,10.0,South,4.6,-,N/A,,Clear,170,2012-12-06 00:53:00
7:53 PM,61.0,32.0,34,29.97,10.0,South,12.7,-,N/A,,Clear,190,2012-12-06 01:53:00
8:53 PM,57.0,32.0,39,29.96,10.0,South,9.2,-,N/A,,Clear,190,2012-12-06 02:53:00
9:53 PM,57.9,32.0,37,29.94,10.0,SSW,12.7,-,N/A,,Clear,200,2012-12-06 03:53:00
10:53 PM,54.0,32.0,43,29.93,10.0,SSW,11.5,-,N/A,,Clear,200,2012-12-06 04:53:00
11:53 PM,54.0,32.0,43,29.91,10.0,South,11.5,-,N/A,,Clear,180,2012-12-06 05:53:00